EW3863 Weather Reports


time (UTC)temp
F
wind
direction
speed
knots
gust
knots
rain 1hr
in
rain 24hr
in
rain mn
in
humidity
%
barometer
mb
20260507141515 77 20 0.0 2.6 0.00 0.00 0.00 40 1011.8
20260507140012 76 4 0.0 6.1 0.00 0.00 0.00 41 1011.9
20260507134513 76 360 0.0 4.3 0.00 0.00 0.00 42 1011.9
20260507133012 76 16 0.9 3.5 0.00 0.00 0.00 41 1011.9
20260507131511 76 15 0.0 4.3 0.00 0.00 0.00 43 1012.0
20260507130110 76 29 0.0 6.1 0.00 0.00 0.00 42 1012.0
20260507124509 77 15 0.0 2.6 0.00 0.00 0.00 42 1012.1
20260507123010 77 248 0.0 4.3 0.00 0.00 0.00 41 1012.1
20260507121508 77 18 0.0 1.7 0.00 0.00 0.00 41 1012.2
20260507120007 76 354 0.0 4.3 0.00 0.00 0.00 43 1012.3
20260507114506 76 16 2.6 6.1 0.00 0.00 0.00 41 1012.5
20260507113006 75 40 0.9 7.0 0.00 0.00 0.00 44 1012.5
20260507111506 76 4 2.6 7.8 0.00 0.00 0.00 41 1012.7
20260507110005 78 10 0.0 3.5 0.00 0.00 0.00 40 1012.8
20260507104504 78 30 0.0 3.5 0.00 0.00 0.00 41 1012.9
20260507103003 77 18 0.0 5.2 0.00 0.00 0.00 42 1013.0
20260507101503 79 11 0.0 2.6 0.00 0.00 0.00 39 1013.1
20260507100002 78 337 0.0 4.3 0.00 0.00 0.00 40 1013.2
20260507094601 78 5 0.0 1.7 0.00 0.00 0.00 41 1013.2
20260507093059 77 17 0.0 1.7 0.00 0.00 0.00 46 1013.2
20260507091554 76 6 0.0 3.5 0.00 0.00 0.00 50 1013.2
20260507090058 77 310 0.0 1.7 0.00 0.00 0.00 49 1013.2
20260507084603 77 17 0.0 0.9 0.00 0.00 0.00 50 1013.1
20260507083051 76 13 0.0 0.9 0.00 0.00 0.00 49 1013.1
20260507081550 75 22 0.0 2.6 0.00 0.00 0.00 50 1013.0
20260507080053 75 31 0.0 1.7 0.00 0.00 0.00 51 1013.0
20260507074548 75 342 0.0 0.0 0.00 0.00 0.00 51 1013.1
20260507073047 76 2 0.0 1.7 0.00 0.00 0.00 48 1013.0
20260507071547 76 18 0.0 0.0 0.00 0.00 0.00 48 1012.9
20260507070059 73 18 0.0 1.7 0.00 0.00 0.00 53 1012.8
20260507064546 71 18 0.0 2.6 0.00 0.00 0.00 55 1012.7
20260507063035 69 22 0.0 0.9 0.00 0.00 0.00 60 1012.6
20260507061529 65 22 0.0 0.0 0.00 0.00 0.00 69 1012.5
20260507060029 58 22 0.0 0.0 0.00 0.00 0.00 80 1012.4
20260507054521 56 22 0.0 0.0 0.00 0.00 0.00 86 1012.3
20260507053020 54 22 0.0 0.0 0.00 0.00 0.00 90 1012.0
20260507051518 52 22 0.0 0.0 0.00 0.00 0.00 92 1011.9
20260507050036 51 22 0.0 0.0 0.00 0.00 0.00 92 1011.8
20260507044514 50 22 0.0 0.0 0.00 0.00 0.00 92 1011.6
20260507043012 50 22 0.0 0.0 0.00 0.00 0.00 92 1011.4
20260507041513 49 22 0.0 0.0 0.00 0.00 0.00 91 1011.4
20260507040008 50 22 0.0 0.0 0.00 0.00 0.00 90 1011.1
20260507034507 50 22 0.0 0.0 0.00 0.00 0.00 90 1011.1
20260507033005 51 22 0.0 0.0 0.00 0.00 0.00 89 1011.0
20260507031501 51 22 0.0 0.0 0.00 0.00 0.00 89 1011.0
20260507030105 51 22 0.0 0.0 0.00 0.00 0.00 89 1010.9
20260507024600 52 22 0.0 0.0 0.00 0.00 0.00 89 1010.9
20260507023058 52 22 0.0 0.0 0.00 0.00 0.00 88 1010.9
20260507021627 52 22 0.0 0.0 0.00 0.00 0.00 88 1011.0
20260507020110 52 22 0.0 0.9 0.00 0.00 0.00 88 1011.0
20260507014619 52 22 0.0 0.0 0.00 0.00 0.00 87 1010.8
20260507013052 53 22 0.0 0.0 0.00 0.00 0.00 86 1010.6
20260507011558 53 22 0.0 0.9 0.00 0.00 0.00 85 1010.6
20260507010048 53 15 0.0 0.0 0.00 0.00 0.00 86 1010.5
20260507004546 54 16 0.0 0.0 0.00 0.00 0.00 85 1010.5
20260507003045 54 15 0.0 0.0 0.00 0.00 0.00 84 1010.5
20260507001558 55 15 0.0 0.0 0.00 0.00 0.00 84 1010.6
20260507000053 55 15 0.0 0.0 0.00 0.00 0.00 82 1010.5
20260506234554 55 15 0.0 0.9 0.00 0.00 0.00 81 1010.6
20260506233044 56 15 0.0 0.0 0.00 0.00 0.00 81 1010.6
20260506231538 55 15 0.0 0.0 0.00 0.00 0.00 80 1010.6
20260506230037 55 15 0.0 0.0 0.00 0.00 0.00 81 1010.6
20260506224536 55 15 0.0 0.9 0.00 0.00 0.00 82 1010.6
20260506223037 56 15 0.0 0.9 0.00 0.00 0.00 83 1010.5
20260506221541 56 15 0.0 0.0 0.00 0.00 0.00 83 1010.6
20260506220033 57 15 0.0 0.0 0.00 0.00 0.00 82 1010.6
20260506214530 57 15 0.0 0.9 0.00 0.00 0.00 81 1010.5
20260506213028 57 13 0.0 0.9 0.00 0.00 0.00 81 1010.4
20260506211539 58 13 0.0 0.9 0.00 0.00 0.00 82 1010.3
20260506210034 58 8 0.0 1.7 0.00 0.00 0.00 82 1010.1
20260506204531 59 34 0.0 0.9 0.00 0.00 0.00 82 1010.0
20260506203024 59 23 0.0 1.7 0.00 0.00 0.00 83 1009.9
20260506201533 59 20 0.0 0.9 0.00 0.00 0.00 83 1009.9
20260506200029 60 20 0.0 0.9 0.00 0.00 0.00 84 1009.7
20260506194522 61 32 0.0 0.9 0.00 0.00 0.00 84 1009.4
20260506193032 61 34 0.0 2.6 0.00 0.00 0.00 83 1009.2
20260506191521 62 20 0.0 3.5 0.00 0.00 0.00 83 1009.0
20260506190020 62 26 0.0 1.7 0.00 0.00 0.00 83 1008.8
20260506184519 62 22 0.0 0.9 0.00 0.00 0.00 85 1008.5
20260506183019 63 46 0.0 1.7 0.00 0.00 0.00 86 1008.5
20260506181534 63 32 0.0 0.9 0.00 0.00 0.00 85 1008.5
20260506180017 63 28 0.0 0.9 0.00 0.00 0.00 85 1008.3
20260506174517 64 27 0.0 0.9 0.00 0.00 0.00 84 1008.2
20260506173019 64 337 0.0 0.9 0.00 0.00 0.00 84 1008.1
20260506171517 64 13 0.0 3.5 0.00 0.00 0.00 85 1007.9
20260506170014 65 16 0.0 3.5 0.00 0.00 0.00 85 1007.8
20260506164514 65 34 0.0 4.3 0.00 0.00 0.00 86 1007.8
20260506163016 66 19 0.0 2.6 0.00 0.00 0.00 86 1007.9
20260506161512 66 352 0.0 3.5 0.00 0.00 0.00 87 1008.0
20260506160012 66 37 0.0 1.7 0.00 0.00 0.00 88 1008.0
20260506154511 65 35 0.0 6.1 0.00 0.00 0.00 92 1007.9
20260506153010 64 262 0.0 4.3 0.00 0.00 0.00 96 1007.9
20260506151509 64 4 0.9 4.3 0.00 0.00 0.00 96 1007.8
20260506150014 65 34 0.0 4.3 0.00 0.00 0.00 96 1007.9
20260506144507 65 17 0.0 4.3 0.00 0.00 0.00 96 1007.9
20260506143005 64 46 0.0 5.2 0.00 0.00 0.00 97 1008.0